Flag for Brazil Weather past 2 weeks in Maceió, Alagoas, Brazil

Now
82 °F

Scattered clouds.


Feels Like: 85 °F
Forecast: 72 / 82 °F
Wind: 13 mph from Southeast

Location: Maceio Aeroporto

Current Time: Aug 29, 2015 at 12:08:08 PM

Latest Report: Aug 29, 2015 at 11:00 AM


Visibility: N/A

Pressure: 30.12 "Hg

Humidity: 62%

Dew point: 68 °F

Location of MaceióLocation

Historic Weather in Maceió — Graph

°F

Maceió temperature yesterday

Maximum temperature yesterday: 84 °F (at 1:00 PM)
Minimum temperature yesterday: 66 °F (at 4:00 AM)
Average temperature yesterday: 74 °F

Past Weeks' High & Low Weather Summary

 TemperatureHumidityPressure
High86 °F (Aug 25, 1:00 PM)100% (Aug 14, 11:00 PM)30.45 "Hg (Aug 14, 11:00 PM)
Low66 °F (Aug 24, 12:00 AM)55% (Aug 17, 11:00 AM)29.92 "Hg (Aug 22, 3:00 PM)
Average75 °F85%30.04 "Hg
* Reported Aug 14 11:00 AM — Aug 29 11:00 AM, Maceió, Weather by CustomWeather, © 2015

Note: Actual official high and low records may vary slightly from our data, if they occured in-between our weather recording intervals... More about our weather records

Advertising

Maceió weather history for previous 24 hours

 ConditionsComfort  
Time TempWeatherWind HumidityBarometerVisibility
11:00 AM
Sat, Aug 29
82 °FScattered clouds.13 mph62%30.12 "HgN/A
10:00 AM81 °FScattered clouds.10 mph70%30.12 "HgN/A
9:00 AM81 °FPassing clouds.5 mph70%30.12 "HgN/A
8:00 AM77 °FSunny.2 mph83%30.12 "Hg10 mi
7:00 AM72 °FPassing clouds.3 mph94%30.09 "HgN/A
6:00 AM68 °FPassing clouds.3 mph100%30.07 "HgN/A
4:00 AM68 °FPassing clouds.3 mph94%30.07 "HgN/A
3:00 AM68 °FPassing clouds.3 mph100%30.07 "HgN/A
2:00 AM68 °FPassing clouds.2 mph94%30.04 "HgN/A
1:00 AM68 °FPassing clouds.3 mph94%30.07 "HgN/A
12:00 AM68 °FPassing clouds.5 mph100%30.09 "HgN/A
11:00 PM
Fri, Aug 28
70 °FClear.3 mph94%30.09 "Hg10 mi
10:00 PM70 °FPassing clouds.No wind94%30.09 "HgN/A
9:00 PM70 °FPassing clouds.2 mph94%30.09 "HgN/A
8:00 PM72 °FPassing clouds.5 mph94%30.07 "HgN/A
7:00 PM72 °FPassing clouds.7 mph88%30.04 "HgN/A
6:00 PM73 °FPassing clouds.12 mph89%30.04 "HgN/A
5:00 PM79 °FScattered clouds.10 mph70%30.01 "HgN/A
4:00 PM81 °FPassing clouds.12 mph62%30.01 "HgN/A
3:00 PM82 °FPassing clouds.12 mph62%30.01 "HgN/A
2:00 PM82 °FScattered clouds.10 mph62%30.01 "HgN/A
1:00 PM84 °FScattered clouds.10 mph62%30.04 "HgN/A
12:00 PM82 °FScattered clouds.9 mph58%30.07 "HgN/A
Weather by CustomWeather, © 2015

See weather overviewHow to use our weather pages